Change the Weather History Date:

Saturday, April 27, 2013

  Actual Average Record
Temperature  
Mean Temperature 68 °F -  
Max Temperature 78 °F 69 °F 78 °F (2013)
Min Temperature 57 °F 46 °F 39 °F (1997)
Cooling Degree Days 2    
Growing Degree Days 18 (Base 50)    
Moisture  
Dew Point 48 °F    
Average Humidity 48    
Maximum Humidity 68    
Minimum Humidity 32    
Precipitation  
Precipitation 0.00 in - - ()
Sea Level Pressure  
Sea Level Pressure 29.74 in    
Wind  
Wind Speed 9 mph ()    
Max Wind Speed 18 mph    
Max Gust Speed 25 mph    
Visibility 6.2 miles    
Events      
Averages and records for this station are not official NWS values.
T = Trace of Precipitation, MM = Missing Value Source: Averaged Metar Reports

Daily Weather History Graph

Daily Weather History Graph

Search for Another Location

Airport or City:

Trip Planner

Search our weather history database for the weather conditions in past years. The results will help you decide how hot, cold, wet, or windy it might be!

Date:

Astronomy

Apr. 27, 2013 Rise Set
Actual Time 5:32 AM CEST 7:49 PM CEST
Civil Twilight 4:59 AM CEST 8:22 PM CEST
Nautical Twilight 4:17 AM CEST 9:05 PM CEST
Astronomical Twilight 3:30 AM CEST 9:52 PM CEST
Moon 10:06 PM CEST (4/27) 6:29 AM CEST (4/27)
Length of Visible Light 15h 23m
Length of Day
14h 16m
Waning Gibbous, 96% of the Moon is Illuminated
Apr 27
Waning Gibbous
May 2
Last Quarter
May 10
New
May 18
First Quarter
May 25
Full

Hourly Weather History & Observations

Time (CEST) Temp. Dew Point Humidity Pressure Visibility Wind Dir Wind Speed Gust Speed Precip Events Conditions
12:00 AM 60.8 °F 50.0 °F 68% 29.77 in - SE 5.8 mph - N/A   Clear
12:30 AM 60.8 °F 48.2 °F 63% 29.77 in - SE 6.9 mph - N/A   Clear
1:00 AM 62.6 °F 48.2 °F 59% 29.77 in - SSE 6.9 mph - N/A   Clear
1:30 AM 66.2 °F 46.4 °F 49% 29.77 in - South 8.1 mph - N/A   Clear
2:00 AM 66.2 °F 44.6 °F 46% 29.77 in - South 6.9 mph - N/A   Clear
2:30 AM 66.2 °F 42.8 °F 43% 29.77 in - South 12.7 mph - N/A   Clear
3:00 AM 64.4 °F 44.6 °F 49% 29.74 in - South 8.1 mph - N/A   Clear
3:30 AM 62.6 °F 46.4 °F 55% 29.74 in - SSE 5.8 mph - N/A   Clear
4:00 AM 62.6 °F 44.6 °F 52% 29.74 in - SSE 5.8 mph - N/A   Clear
4:30 AM 60.8 °F 44.6 °F 55% 29.74 in - South 5.8 mph - N/A   Clear
5:00 AM 62.6 °F 44.6 °F 52% 29.74 in - South 9.2 mph - N/A   Clear
5:30 AM 59.0 °F 44.6 °F 59% 29.74 in - SSE 4.6 mph - N/A   Clear
6:00 AM 57.2 °F 44.6 °F 63% 29.74 in - SE 5.8 mph - N/A   Clear
6:30 AM 60.8 °F 46.4 °F 59% 29.74 in - South 6.9 mph - N/A   Clear
7:00 AM 62.6 °F 46.4 °F 55% 29.74 in - South 5.8 mph - N/A   Clear
7:30 AM 62.6 °F 48.2 °F 59% 29.74 in - South 8.1 mph - N/A   Clear
8:00 AM 64.4 °F 48.2 °F 56% 29.74 in - South 10.4 mph - N/A   Clear
8:30 AM 66.2 °F 48.2 °F 52% 29.74 in - SSW 11.5 mph - N/A   Clear
9:00 AM 68.0 °F 50.0 °F 52% 29.77 in - SW 13.8 mph - N/A   Clear
9:30 AM 71.6 °F 50.0 °F 46% 29.77 in - SW 13.8 mph - N/A   Clear
10:00 AM 71.6 °F 50.0 °F 46% 29.77 in - SSW 15.0 mph - N/A   Clear
10:30 AM 71.6 °F 50.0 °F 46% 29.77 in - SSW 16.1 mph - N/A   Clear
11:00 AM 75.2 °F 51.8 °F 44% 29.77 in - SSW 16.1 mph - N/A   Clear
11:30 AM 73.4 °F 50.0 °F 44% 29.77 in - SSW 18.4 mph - N/A   Clear
12:00 PM 75.2 °F 50.0 °F 41% 29.77 in - SW 16.1 mph - N/A   Clear
12:30 PM 77.0 °F 51.8 °F 41% 29.74 in - SSW 15.0 mph - N/A   Clear
1:00 PM 77.0 °F 50.0 °F 39% 29.74 in - SSW 16.1 mph - N/A   Clear
1:30 PM 75.2 °F 48.2 °F 38% 29.74 in - SSW 18.4 mph - N/A   Clear
2:00 PM 77.0 °F 50.0 °F 39% 29.74 in - SSW 16.1 mph - N/A   Clear
2:30 PM 77.0 °F 48.2 °F 36% 29.74 in - SSW 17.3 mph - N/A   Clear
3:00 PM 77.0 °F 50.0 °F 39% 29.74 in - SSW 16.1 mph - N/A   Clear
3:30 PM 78.8 °F 48.2 °F 34% 29.71 in - South 13.8 mph - N/A   Clear
4:00 PM 78.8 °F 48.2 °F 34% 29.71 in - SSW 13.8 mph 25.3 mph N/A   Clear
4:30 PM 77.0 °F 48.2 °F 36% 29.71 in - South 12.7 mph - N/A   Clear
5:00 PM 78.8 °F 46.4 °F 32% 29.71 in - South 15.0 mph - N/A   Clear
5:30 PM 77.0 °F 44.6 °F 32% 29.71 in - SSW 13.8 mph - N/A   Clear
6:00 PM 77.0 °F 46.4 °F 34% 29.71 in - WSW 9.2 mph - N/A   Clear
6:30 PM 77.0 °F 48.2 °F 36% 29.71 in - WSW 8.1 mph - N/A   Clear
7:00 PM 75.2 °F 48.2 °F 38% 29.71 in 6.2 mi SW 5.8 mph - N/A   Mostly Cloudy
7:30 PM 75.2 °F 48.2 °F 38% 29.71 in 6.2 mi SSW 4.6 mph - N/A   Mostly Cloudy
8:00 PM 71.6 °F 51.8 °F 50% 29.71 in - SW 4.6 mph - N/A   Clear
8:30 PM 69.8 °F 50.0 °F 49% 29.71 in - West 6.9 mph - N/A   Clear
9:00 PM 68.0 °F 51.8 °F 56% 29.74 in - West 9.2 mph - N/A   Clear
9:30 PM 66.2 °F 50.0 °F 56% 29.74 in - WSW 6.9 mph - N/A   Clear
10:00 PM 68.0 °F 51.8 °F 56% 29.74 in - SW 10.4 mph - N/A   Clear
10:30 PM 66.2 °F 51.8 °F 60% 29.74 in - SW 9.2 mph - N/A   Clear
11:00 PM 64.4 °F 51.8 °F 64% 29.74 in - WSW 5.8 mph - N/A   Clear
11:30 PM 64.4 °F 51.8 °F 64% 29.74 in - Variable 3.5 mph - N/A   Clear